Fargo, ND

12:23 PM CST on December 08, 2016 (GMT -0600)
Hector International

Weather History for KFAR - October, 2012

Change the Weather History Date:

Friday, October 19, 2012

  Actual Average Record
Temperature  
Mean Temperature 42 °F 44 °F  
Max Temperature 43 °F 55 °F 84 °F (2003)
Min Temperature 41 °F 34 °F 12 °F (1917)
Degree Days  
Heating Degree Days 23 21  
Month to date heating degree days 369 319  
Since 1 July heating degree days 599 589  
Cooling Degree Days 0 0  
Month to date cooling degree days 0 0  
Year to date cooling degree days 795 548  
Moisture  
Dew Point 39 °F    
Average Humidity 88    
Maximum Humidity 93    
Minimum Humidity 82    
Precipitation  
Precipitation 0.11 in 0.07 in 1.26 in (1934)
Month to date precipitation 1.93 1.47  
Year to date precipitation 13.27 20.10  
Snow  
Snow 0.00 in 0.00 in 0.40 in (1913)
Month to date snowfall 1.4 0.2  
Since 1 July snowfall 1.4 0.2  
Since 1 September snowfall 1.4 0.2  
Snow Depth 0.00 in    
Sea Level Pressure  
Sea Level Pressure 29.74 in    
Wind  
Wind Speed 15 mph (NNW)    
Max Wind Speed 37 mph    
Max Gust Speed 45 mph    
Visibility 9 miles    
Events Rain    
T = Trace of Precipitation, MM = Missing Value Source: NWS Daily Summary

Daily Weather History Graph

Daily Weather History Graph

Search for Another Location

Airport or City:

Trip Planner

Search our weather history database for the weather conditions in past years. The results will help you decide how hot, cold, wet, or windy it might be!

Date:

Astronomy

Oct. 19, 2012 Rise Set
Actual Time 7:51 AM CDT 6:31 PM CDT
Civil Twilight 7:20 AM CDT 7:02 PM CDT
Nautical Twilight 6:45 AM CDT 7:37 PM CDT
Astronomical Twilight 6:10 AM CDT 8:13 PM CDT
Moon 12:49 PM CDT (10/19) 9:58 PM CDT (10/19)
Length of Visible Light 11h 42m
Length of Day
10h 40m
Waxing Crescent, 24% of the Moon is Illuminated
Oct 19
Waxing Crescent
Oct 21
First Quarter
Oct 29
Full
Nov 6
Last Quarter
Nov 13
New

Hourly Weather History & Observations

Time (CDT) Temp. Windchill Dew Point Humidity Pressure Visibility Wind Dir Wind Speed Gust Speed Precip Events Conditions
12:53 AM 42.1 °F 30.8 °F 39.0 °F 89% 29.62 in 4.0 mi NNW 33.4 mph 44.9 mph N/A   Overcast
1:53 AM 41.0 °F 29.3 °F 39.0 °F 93% 29.65 in 4.0 mi NNW 33.4 mph 40.3 mph 0.03 in   Overcast
2:18 AM 41.0 °F 29.8 °F 39.2 °F 93% 29.65 in 2.5 mi North 29.9 mph 36.8 mph 0.02 in   Overcast
2:34 AM 41.0 °F 30.0 °F 39.2 °F 93% 29.65 in 4.0 mi North 28.8 mph 35.7 mph 0.03 in   Overcast
2:53 AM 41.0 °F 30.0 °F 39.0 °F 93% 29.67 in 7.0 mi North 28.8 mph 34.5 mph 0.05 in Rain Light Rain
3:53 AM 41.0 °F 31.1 °F 37.9 °F 89% 29.69 in 10.0 mi North 23.0 mph 31.1 mph 0.01 in   Overcast
4:53 AM 41.0 °F 30.2 °F 37.9 °F 89% 29.71 in 9.0 mi North 27.6 mph 38.0 mph N/A   Overcast
5:53 AM 41.0 °F 30.7 °F 37.9 °F 89% 29.72 in 6.0 mi NNW 25.3 mph 35.7 mph 0.00 in Rain Light Rain
6:53 AM 41.0 °F 31.4 °F 37.9 °F 89% 29.73 in 10.0 mi North 21.9 mph 31.1 mph 0.01 in   Overcast
7:39 AM 41.0 °F 31.4 °F 37.4 °F 87% 29.72 in 10.0 mi NNW 21.9 mph - N/A   Overcast
7:53 AM 41.0 °F 31.6 °F 37.9 °F 89% 29.75 in 10.0 mi NNW 20.7 mph 26.5 mph N/A   Overcast
8:53 AM 41.0 °F 31.9 °F 37.9 °F 89% 29.76 in 10.0 mi North 19.6 mph - N/A   Overcast
9:53 AM 41.0 °F 31.9 °F 37.9 °F 89% 29.76 in 10.0 mi NNW 19.6 mph 26.5 mph 0.00 in Rain Light Rain
10:08 AM 41.0 °F 32.5 °F 39.2 °F 93% 29.74 in 10.0 mi NNW 17.3 mph - 0.00 in Rain Light Rain
10:53 AM 42.1 °F 33.6 °F 37.9 °F 85% 29.78 in 10.0 mi North 18.4 mph 29.9 mph 0.00 in   Overcast
11:53 AM 42.1 °F 34.2 °F 37.9 °F 85% 29.78 in 10.0 mi NNW 16.1 mph 25.3 mph N/A   Overcast
12:53 PM 42.1 °F 33.1 °F 37.9 °F 85% 29.78 in 7.0 mi NNW 20.7 mph - 0.01 in Rain Light Rain
1:53 PM 43.0 °F 35.4 °F 39.0 °F 86% 29.77 in 10.0 mi North 16.1 mph - 0.00 in   Overcast
2:12 PM 42.8 °F 35.4 °F 39.2 °F 87% 29.74 in 10.0 mi NNW 15.0 mph - N/A   Overcast
2:43 PM 42.8 °F 34.0 °F 39.2 °F 87% 29.74 in 6.0 mi NNW 20.7 mph - N/A   Overcast
2:53 PM 42.1 °F 33.9 °F 39.0 °F 89% 29.75 in 5.0 mi North 17.3 mph 25.3 mph 0.00 in Rain Light Rain
3:53 PM 43.0 °F 35.4 °F 39.0 °F 86% 29.75 in 10.0 mi North 16.1 mph - 0.00 in   Overcast
4:53 PM 43.0 °F 36.4 °F 39.0 °F 86% 29.77 in 10.0 mi NNW 12.7 mph - N/A   Overcast
5:04 PM 42.8 °F 36.2 °F 39.2 °F 87% 29.75 in 10.0 mi NNW 12.7 mph - N/A   Overcast
5:53 PM 43.0 °F 38.2 °F 39.0 °F 86% 29.77 in 10.0 mi North 8.1 mph - N/A   Overcast
6:04 PM 42.8 °F 38.0 °F 39.2 °F 87% 29.75 in 7.0 mi NNW 8.1 mph - N/A   Overcast
6:18 PM 42.8 °F 37.0 °F 39.2 °F 87% 29.75 in 2.5 mi NNW 10.4 mph - N/A   Overcast
6:28 PM 42.8 °F 38.6 °F 39.2 °F 87% 29.75 in 6.0 mi NNW 6.9 mph - N/A   Overcast
6:51 PM 42.8 °F 40.1 °F 39.2 °F 87% 29.75 in 10.0 mi North 4.6 mph - N/A   Overcast
6:53 PM 43.0 °F 39.5 °F 39.9 °F 89% 29.78 in 10.0 mi NNW 5.8 mph - N/A   Overcast
7:35 PM 42.8 °F 38.0 °F 39.2 °F 87% 29.75 in 10.0 mi NNW 8.1 mph - N/A   Overcast
7:53 PM 42.1 °F 39.2 °F 39.9 °F 92% 29.78 in 10.0 mi North 4.6 mph - N/A   Overcast
8:27 PM 42.8 °F 40.1 °F 39.2 °F 87% 29.74 in 10.0 mi NNW 4.6 mph - N/A   Overcast
8:43 PM 42.8 °F 39.3 °F 39.2 °F 87% 29.74 in 10.0 mi North 5.8 mph - N/A   Overcast
8:53 PM 42.1 °F 39.2 °F 39.0 °F 89% 29.76 in 10.0 mi North 4.6 mph - N/A   Overcast
9:04 PM 42.8 °F 40.1 °F 39.2 °F 87% 29.74 in 10.0 mi North 4.6 mph - N/A   Overcast
9:53 PM 42.1 °F 40.2 °F 39.0 °F 89% 29.78 in 10.0 mi WNW 3.5 mph - N/A   Overcast
9:56 PM 42.8 °F 41.1 °F 39.2 °F 87% 29.75 in 10.0 mi WNW 3.5 mph - N/A   Overcast
10:50 PM 42.8 °F - 39.2 °F 87% 29.75 in 10.0 mi Calm Calm - N/A   Overcast
10:53 PM 42.1 °F 40.2 °F 39.9 °F 92% 29.78 in 10.0 mi West 3.5 mph - N/A   Overcast
11:15 PM 42.8 °F 41.1 °F 39.2 °F 87% 29.74 in 10.0 mi West 3.5 mph - N/A   Overcast
11:53 PM 42.1 °F - 39.0 °F 89% 29.76 in 10.0 mi Calm Calm - N/A   Overcast